Regional Weather Roundup
Issued by NWS

Home | Current Version | Previous Version | Graphics & Text | Print | Product List | Glossary Off
Versions: 1 2 3 4 5 6 7 8 9 10 11 12 13 14 15 16 17 18 19 20 21 22 23 24 25 26 27 28 29 30 31 32 33 34 35 36 37 38 39 40 41 42 43 44 45 46 47 48 49 50

000
ASUS43 KTOP 021759
RWRKS

WEATHER ROUNDUP FOR KANSAS
NATIONAL WEATHER SERVICE GOODLAND KS
100 PM CDT TUE JUN 02 2015

NOTE:  "FAIR" INDICATES FEW OR NO CLOUDS BELOW 12,000 FEET WITH NO
SIGNIFICANT WEATHER AND/OR OBSTRUCTIONS TO VISIBILITY.

KSZ001>006-013>018-027>032-041>047-021900-
NORTHWEST KANSAS

CITY           SKY/WX    TMP DP  RH WIND       PRES   REMARKS
GOODLAND       MOSUNNY   79  61  53 S13       29.90F
6HR MIN TEMP:  59; 6HR MAX TEMP:  79;

HAYS           MOSUNNY   79  64  61 S15G21    29.89F
HILL CITY      SUNNY     79  64  60 S13G21    29.88F
6HR MIN TEMP:  64; 6HR MAX TEMP:  79;

RUSSELL        MOSUNNY   79  66  64 S14G23    29.89F
6HR MIN TEMP:  62; 6HR MAX TEMP:  80;

$$

KSZ061>065-074>080-084>089-021900-
SOUTHWEST KANSAS

CITY           SKY/WX    TMP DP  RH WIND       PRES   REMARKS
DODGE CITY     SUNNY     84  62  47 S22G28    29.90F
ELKHART          N/A     87  57  35 S8          N/A
GARDEN CITY    SUNNY     83  61  47 S15       29.88F
6HR MIN TEMP:  62; 6HR MAX TEMP:  83;

GREAT BEND     MOSUNNY   79  64  61 S17       29.90F
LIBERAL        SUNNY     86  63  45 SW18G28   29.91F
$$

KSZ066>073-081>083-090>101-021900-
SOUTHEAST KANSAS

CITY           SKY/WX    TMP DP  RH WIND       PRES   REMARKS
CHANUTE        SUNNY     77  65  66 SE9G16    30.02F
6HR MIN TEMP:  58; 6HR MAX TEMP:  77;

COFFEYVILLE    PTSUNNY   77  66  68 SE8       30.01F
6HR MIN TEMP:  60; 6HR MAX TEMP:  77;

HUTCHINSON     MOSUNNY   85  63  47 S21G26    29.93F
6HR MIN TEMP:  63; 6HR MAX TEMP:  85;

MEDICINE LODGE   N/A     83  64  52 S18G24    29.90F
NEWTON         SUNNY     81  63  54 S16G23    29.98F
PARSONS        PTSUNNY   79  66  64 VRB7      30.03F
6HR MIN TEMP:  60; 6HR MAX TEMP:  79;

WICHITA INTL   SUNNY     84  65  52 S18G26    29.94F
6HR MIN TEMP:  64; 6HR MAX TEMP:  84;

WICHITA JABRA  SUNNY     81  65  58 S18G25    29.95F
6HR MIN TEMP:  61; 6HR MAX TEMP:  82;

WINFIELD       SUNNY     81  66  60 S14       29.98F
6HR MIN TEMP:  63; 6HR MAX TEMP:  81;

$$

KSZ007>012-019>026-033>040-048>060-102>105-021900-
NORTHEAST KANSAS

CITY           SKY/WX    TMP DP  RH WIND       PRES   REMARKS
CONCORDIA      MOSUNNY   77  63  61 S20G25    29.93F
6HR MIN TEMP:  59; 6HR MAX TEMP:  77;

EMPORIA        PTSUNNY   76  64  66 S17G23    29.99F
6HR MIN TEMP:  57; 6HR MAX TEMP:  76;

LAWRENCE       PTSUNNY   72  60  66 SE13      30.02F
6HR MIN TEMP:  58; 6HR MAX TEMP:  73;

MANHATTAN      PTSUNNY   71  63  75 SE9       29.97F
6HR MIN TEMP:  59; 6HR MAX TEMP:  71; 6HR PCP:  0.14;

OLATHE IND     PTSUNNY   70  60  70 SE12      30.05F
6HR MIN TEMP:  57; 6HR MAX TEMP:  70;

OLATHE EXE     CLOUDY    69  60  73 S10       30.04F
6HR MIN TEMP:  57; 6HR MAX TEMP:  70;

SALINA         MOSUNNY   82  65  56 S15G23    29.92F
6HR MIN TEMP:  62; 6HR MAX TEMP:  82;

TOPEKA BILLARD PTSUNNY   73  62  68 SE13      30.01F
6HR MIN TEMP:  58; 6HR MAX TEMP:  73;

TOPEKA FORBES  PTSUNNY   75  61  61 SE10      30.01F
6HR MIN TEMP:  59; 6HR MAX TEMP:  75;

$$


USA.gov is the U.S. government's official web portal to all federal, state and local government web resources and services.